CW5801 Weather Reports


time (UTC)temp
F
wind
direction
speed
knots
gust
knots
rain 1hr
in
rain 24hr
in
rain mn
in
humidity
%
barometer
mb
20260504185604 84 105 0.9 2.6 0.00 0.00 0.00 30 1015.1
20260504185104 83 105 0.9 2.6 0.00 0.00 0.00 30 1015.2
20260504184604 83 108 2.6 6.1 0.00 0.00 0.00 30 1015.2
20260504184105 84 176 1.7 4.3 0.00 0.00 0.00 30 1015.3
20260504183105 84 75 1.7 2.6 0.00 0.00 0.00 30 1015.4
20260504182604 84 124 1.7 2.6 0.00 0.00 0.00 31 1015.5
20260504181104 82 121 1.7 2.6 0.00 0.00 0.00 31 1015.7
20260504180604 82 122 1.7 4.3 0.00 0.00 0.00 32 1015.8
20260504180104 82 100 1.7 2.6 0.00 0.00 0.00 31 1016.0
20260504175604 82 129 3.5 10.4 0.00 0.00 0.00 31 1016.0
20260504175104 82 76 1.7 2.6 0.00 0.00 0.00 33 1015.9
20260504174604 82 110 2.6 6.1 0.00 0.00 0.00 32 1016.1
20260504173605 82 108 1.7 5.2 0.00 0.00 0.00 34 1016.2
20260504173104 82 119 2.6 7.8 0.00 0.00 0.00 34 1016.2
20260504172104 81 91 0.9 6.1 0.00 0.00 0.00 35 1016.3
20260504171605 81 133 1.7 5.2 0.00 0.00 0.00 34 1016.4
20260504171104 80 113 1.7 6.1 0.00 0.00 0.00 35 1016.3
20260504170604 80 194 1.7 2.6 0.00 0.00 0.00 35 1016.4
20260504170104 80 252 1.7 2.6 0.00 0.00 0.00 33 1016.5
20260504160105 79 5 0.9 4.3 0.00 0.00 0.00 36 1017.4
20260504151104 78 261 0.9 2.6 0.00 0.00 0.00 38 1017.4
20260504150604 78 315 0.9 5.2 0.00 0.00 0.00 38 1017.5
20260504150104 78 80 0.9 4.3 0.00 0.00 0.00 38 1017.5
20260504141103 75 16 1.7 4.3 0.00 0.00 0.00 48 1017.7
20260504140604 74 24 1.7 2.6 0.00 0.00 0.00 48 1017.8
20260504140104 74 2 1.7 4.3 0.00 0.00 0.00 50 1017.8
20260504130605 63 343 0.0 0.0 0.00 0.00 0.00 28 1017.7
20260504130104 61 343 0.0 0.0 0.00 0.00 0.00 32 1017.7
20260504110604 46 343 0.0 0.0 0.00 0.00 0.00 43 1017.1
20260504110104 47 343 0.0 0.0 0.00 0.00 0.00 43 1017.1
20260504100604 47 343 0.0 0.0 0.00 0.00 0.00 44 1016.8
20260504100104 47 343 0.0 0.0 0.00 0.00 0.00 44 1016.8
20260504081604 49 343 0.0 0.0 0.00 0.00 0.00 46 1016.9
20260504081103 49 343 0.0 0.0 0.00 0.00 0.00 46 1016.9
20260504080603 49 343 0.0 0.0 0.00 0.00 0.00 46 1016.9
20260504080104 49 343 0.0 0.0 0.00 0.00 0.00 47 1016.9
20260504070104 51 343 0.0 0.0 0.00 0.01 0.00 47 1017.3
20260504060104 52 343 0.0 0.0 0.00 0.01 0.00 52 1017.6
20260504050605 53 343 0.0 0.0 0.00 0.01 0.00 58 1018.1
20260504045605 53 343 0.0 0.0 0.00 0.01 0.00 58 1018.2
20260504045105 54 343 0.0 0.0 0.00 0.01 0.00 58 1018.3
20260504044604 54 343 0.0 0.0 0.00 0.01 0.00 58 1018.3
20260504044105 54 343 0.0 0.0 0.00 0.01 0.00 59 1018.3
20260504043605 54 343 0.0 0.0 0.00 0.01 0.00 59 1018.4
20260504043105 54 343 0.0 0.0 0.00 0.01 0.00 59 1018.3
20260504041605 54 343 0.0 0.0 0.00 0.01 0.00 63 1018.3
20260504041105 54 343 0.0 0.0 0.00 0.01 0.00 63 1018.3
20260504040605 54 343 0.0 0.0 0.00 0.01 0.00 63 1018.2
20260504035105 55 343 0.0 0.0 0.00 0.01 0.01 67 1018.2
20260504034605 55 343 0.0 0.0 0.00 0.01 0.01 67 1018.2
20260504034105 55 343 0.0 0.0 0.00 0.01 0.01 67 1018.2
20260504033605 55 343 0.0 0.0 0.00 0.01 0.01 68 1018.2
20260504031604 56 343 0.0 0.0 0.00 0.01 0.01 71 1018.0
20260504031105 56 343 0.0 0.0 0.00 0.01 0.01 71 1018.1
20260504030604 56 343 0.0 0.0 0.00 0.01 0.01 72 1018.1
20260504025605 56 343 0.0 0.0 0.00 0.01 0.01 73 1018.0
20260504025105 56 343 0.0 0.0 0.00 0.01 0.01 73 1018.0
20260504023604 57 343 0.0 0.0 0.00 0.01 0.01 74 1017.9
20260504023105 57 343 0.0 0.0 0.00 0.01 0.01 74 1017.8
20260504022605 57 343 0.0 0.0 0.00 0.01 0.01 75 1017.6
20260504022104 57 343 0.0 0.0 0.00 0.01 0.01 75 1017.6
20260504020605 58 343 0.0 0.0 0.00 0.01 0.01 76 1017.4
20260504020104 58 343 0.0 0.0 0.00 0.01 0.01 76 1017.3
20260504015104 59 343 0.0 0.0 0.00 0.01 0.01 75 1017.3
20260504014104 60 343 0.0 0.0 0.00 0.01 0.01 75 1017.1
20260504013605 60 343 0.0 0.0 0.00 0.01 0.01 74 1017.0
20260504013105 60 343 0.0 0.0 0.00 0.01 0.01 74 1016.8
20260504012604 61 343 0.0 0.0 0.00 0.01 0.01 73 1016.8
20260504012104 61 343 0.0 0.0 0.00 0.01 0.01 73 1016.7
20260504011604 61 343 0.0 0.0 0.00 0.01 0.01 72 1016.7
20260504011104 62 343 0.0 0.0 0.00 0.01 0.01 71 1016.6
20260504010605 62 343 0.0 0.0 0.00 0.01 0.01 70 1016.5
20260504010105 63 343 0.0 0.0 0.00 0.01 0.01 68 1016.4
20260504005605 63 343 0.0 0.0 0.00 0.01 0.01 67 1016.3
20260504005104 63 343 0.0 0.0 0.00 0.01 0.01 67 1016.2
20260504004604 64 343 0.0 0.0 0.00 0.01 0.01 66 1016.2
20260504004105 64 343 0.0 0.0 0.00 0.01 0.01 67 1016.2
20260504003605 65 343 0.0 0.0 0.00 0.01 0.01 66 1016.1
20260504002104 67 343 0.0 0.0 0.00 0.01 0.01 63 1015.9
20260504001605 67 343 0.0 0.0 0.00 0.01 0.01 62 1015.9
20260504001104 68 343 0.0 0.0 0.00 0.01 0.01 63 1015.9
20260504000605 68 343 0.0 0.0 0.00 0.01 0.01 59 1015.9
20260504000105 69 343 0.0 0.0 0.00 0.01 0.01 59 1015.8
20260503235604 69 343 0.0 0.0 0.00 0.01 0.01 61 1015.8
20260503235105 70 343 0.0 0.0 0.00 0.01 0.01 60 1015.7
20260503234604 70 343 0.0 0.0 0.00 0.01 0.01 55 1015.7
20260503234104 71 343 0.0 0.0 0.00 0.01 0.01 53 1015.7
20260503233604 71 343 0.0 0.0 0.00 0.01 0.01 51 1015.7
20260503233104 72 343 0.0 0.0 0.00 0.01 0.01 50 1015.7
20260503232104 72 343 0.0 0.0 0.00 0.01 0.01 46 1015.9
20260503231604 73 342 0.0 0.0 0.00 0.01 0.01 50 1016.0
20260503231104 73 343 0.0 0.0 0.00 0.01 0.01 46 1016.0
20260503230604 73 343 0.9 2.6 0.00 0.01 0.01 43 1016.0
20260503230105 74 140 0.0 1.7 0.00 0.01 0.01 45 1015.9
20260503225605 74 136 0.0 1.7 0.00 0.01 0.01 43 1015.9
20260503225104 74 157 0.0 0.9 0.00 0.01 0.01 43 1015.9
20260503224104 75 86 0.0 1.7 0.00 0.01 0.01 42 1015.8
20260503223604 75 77 0.0 1.7 0.00 0.01 0.01 42 1015.8
20260503223104 75 74 0.0 1.7 0.00 0.01 0.01 44 1015.7
20260503222604 76 35 0.9 2.6 0.00 0.01 0.01 42 1015.7
20260503222105 76 0 0.9 2.6 0.00 0.01 0.01 41 1015.6
20260503221605 76 76 0.9 2.6 0.00 0.01 0.01 41 1015.7
20260503221104 76 302 0.0 2.6 0.00 0.01 0.01 42 1015.7
20260503220605 76 339 1.7 4.3 0.00 0.01 0.01 43 1015.7
20260503220104 76 346 0.0 1.7 0.00 0.01 0.01 43 1015.7
20260503215604 76 346 0.9 2.6 0.00 0.01 0.01 42 1015.8
20260503215104 76 342 0.9 2.6 0.00 0.01 0.01 42 1015.8
20260503214604 77 121 0.0 0.0 0.00 0.01 0.01 41 1015.8
20260503214104 77 121 0.0 0.0 0.00 0.01 0.01 40 1015.8
20260503213605 78 121 0.9 2.6 0.00 0.01 0.01 39 1015.8
20260503213104 78 57 0.9 1.7 0.00 0.01 0.01 39 1015.8
20260503212604 78 56 0.9 2.6 0.00 0.01 0.01 38 1015.9
20260503212104 78 107 1.7 2.6 0.00 0.01 0.01 39 1015.9
20260503211105 78 79 1.7 6.1 0.00 0.01 0.01 38 1015.9
20260503210604 78 20 1.7 4.3 0.00 0.01 0.01 39 1015.8
20260503210104 78 317 1.7 6.1 0.00 0.01 0.01 38 1015.8
20260503205104 79 118 1.7 2.6 0.00 0.01 0.01 38 1015.9
20260503204605 79 117 0.9 2.6 0.00 0.01 0.01 39 1016.0
20260503204105 78 309 0.0 1.7 0.00 0.01 0.01 40 1016.0
20260503203604 78 323 0.0 2.6 0.00 0.01 0.01 41 1016.0
20260503203105 78 346 0.9 7.0 0.00 0.01 0.01 40 1016.2
20260503202604 78 302 0.9 2.6 0.00 0.01 0.01 41 1016.2
20260503202105 78 85 0.9 2.6 0.00 0.01 0.01 40 1016.2
20260503201604 79 114 2.6 5.2 0.00 0.01 0.01 39 1016.3
20260503200604 79 346 1.7 4.3 0.00 0.01 0.01 43 1016.5
20260503195605 78 34 0.9 2.6 0.00 0.01 0.01 44 1016.5
20260503195104 78 309 1.7 2.6 0.00 0.01 0.01 43 1016.5
20260503194605 78 199 0.9 2.6 0.00 0.01 0.01 41 1016.7
20260503194104 78 28 1.7 5.2 0.00 0.01 0.01 42 1016.8
20260503193605 78 330 1.7 4.3 0.00 0.01 0.01 43 1016.9
20260503193104 78 246 1.7 4.3 0.00 0.01 0.01 45 1016.9
20260503192104 77 88 1.7 5.2 0.00 0.01 0.01 44 1017.1
20260503191604 77 11 1.7 7.0 0.00 0.01 0.01 44 1017.3
20260503191104 77 350 2.6 7.0 0.00 0.01 0.01 44 1017.3
20260503190605 77 40 0.9 2.6 0.00 0.01 0.01 45 1017.4
20260503190104 77 254 2.6 7.0 0.00 0.01 0.01 46 1017.4